Location: Hokitika
(42.7170°S, 170.9670°E)
Time: 03:39:06
(UTC+13:00)

Cosmos 2360 Rocket - Pass Details

Date: 24 January 2019
Orbit: 834 x 845 km, 71.0° (Epoch: 18 February)

Event Time Altitude Azimuth Distance (km) Brightness Sun altitude
Exits shadow 22:43:37 - 350° (N) 3,085 4.8 -14.9°
Reaches altitude 10° 22:45:15 10° 352° (N) 2,470 4.3 -15.1°
Maximum altitude 22:50:49 60° 70° (ENE) 975 2.2 -15.8°
Drops below altitude 10° 22:56:27 10° 149° (SSE) 2,497 4.9 -16.5°
Sets 22:58:57 0° 152° (SSE) 3,437 5.6 -16.8°
